TimeEDT,TemperatureF,Dew PointF,Humidity,Sea Level PressureIn,VisibilityMPH,Wind Direction,Wind SpeedMPH,Gust SpeedMPH,PrecipitationIn,Events,Conditions,WindDirDegrees,DateUTC
12:14 AM,59.0,41.0,51,29.97,10.0,Calm,Calm,-,N/A,,Clear,0,2014-06-06 04:14:00
12:35 AM,59.0,39.2,48,29.97,10.0,SE,3.5,-,N/A,,Clear,130,2014-06-06 04:35:00
12:54 AM,55.4,41.0,58,29.97,10.0,Calm,Calm,-,N/A,,Clear,0,2014-06-06 04:54:00
1:15 AM,57.2,39.2,51,29.96,10.0,SE,4.6,-,N/A,,Clear,140,2014-06-06 05:15:00
1:35 AM,55.4,41.0,58,29.96,10.0,Calm,Calm,-,N/A,,Clear,0,2014-06-06 05:35:00
1:54 AM,53.6,41.0,62,29.97,10.0,SSW,4.6,-,N/A,,Clear,200,2014-06-06 05:54:00
2:15 AM,53.6,41.0,62,29.97,10.0,South,4.6,-,N/A,,Clear,190,2014-06-06 06:15:00
2:35 AM,53.6,41.0,62,29.96,10.0,South,3.5,-,N/A,,Clear,170,2014-06-06 06:35:00
2:54 AM,53.6,41.0,62,29.96,10.0,Calm,Calm,-,N/A,,Clear,0,2014-06-06 06:54:00
3:15 AM,51.8,41.0,67,29.96,10.0,Calm,Calm,-,N/A,,Clear,0,2014-06-06 07:15:00
3:35 AM,53.6,41.0,62,29.96,10.0,South,3.5,-,N/A,,Clear,170,2014-06-06 07:35:00
3:54 AM,51.8,41.0,67,29.96,10.0,Calm,Calm,-,N/A,,Clear,0,2014-06-06 07:54:00
4:15 AM,53.6,42.8,67,29.96,10.0,Calm,Calm,-,N/A,,Clear,0,2014-06-06 08:15:00
4:35 AM,50.0,41.0,71,29.96,10.0,Calm,Calm,-,N/A,,Clear,0,2014-06-06 08:35:00
4:54 AM,50.0,41.0,71,29.97,10.0,Calm,Calm,-,N/A,,Clear,0,2014-06-06 08:54:00
5:15 AM,50.0,41.0,71,29.97,10.0,Calm,Calm,-,N/A,,Clear,0,2014-06-06 09:15:00
5:35 AM,51.8,41.0,67,29.98,10.0,Calm,Calm,-,N/A,,Clear,0,2014-06-06 09:35:00
5:54 AM,50.0,41.0,71,29.99,10.0,Calm,Calm,-,N/A,,Clear,0,2014-06-06 09:54:00
6:15 AM,51.8,42.8,71,29.99,10.0,South,3.5,-,N/A,,Clear,170,2014-06-06 10:15:00
6:35 AM,51.8,42.8,71,30.00,10.0,Calm,Calm,-,N/A,,Clear,0,2014-06-06 10:35:00
6:54 AM,51.8,44.6,76,30.01,10.0,Calm,Calm,-,N/A,,Clear,0,2014-06-06 10:54:00
7:15 AM,53.6,44.6,72,30.01,10.0,Calm,Calm,-,N/A,,Clear,0,2014-06-06 11:15:00
7:34 AM,55.4,44.6,67,30.01,10.0,SW,3.5,-,N/A,,Clear,230,2014-06-06 11:34:00
7:54 AM,59.0,44.6,59,30.01,10.0,SW,4.6,-,N/A,,Clear,220,2014-06-06 11:54:00
8:15 AM,59.0,44.6,59,30.01,10.0,SW,6.9,-,N/A,,Clear,220,2014-06-06 12:15:00
8:34 AM,60.8,44.6,55,30.01,10.0,SSW,8.1,-,N/A,,Clear,200,2014-06-06 12:34:00
8:54 AM,62.6,44.6,52,30.01,10.0,South,6.9,-,N/A,,Clear,190,2014-06-06 12:54:00
9:15 AM,64.4,44.6,49,30.01,10.0,SSW,9.2,-,N/A,,Clear,210,2014-06-06 13:15:00
9:34 AM,64.4,42.8,45,30.01,10.0,SSW,9.2,-,N/A,,Clear,200,2014-06-06 13:34:00
9:54 AM,64.4,42.8,45,30.01,10.0,SW,5.8,-,N/A,,Clear,230,2014-06-06 13:54:00
10:15 AM,66.2,44.6,46,30.01,10.0,WSW,3.5,-,N/A,,Clear,250,2014-06-06 14:15:00
10:34 AM,68.0,42.8,40,30.00,10.0,Calm,Calm,-,N/A,,Clear,0,2014-06-06 14:34:00
11:54 AM,71.6,46.4,41,30.01,10.0,West,4.6,-,N/A,,Clear,280,2014-06-06 15:54:00
12:15 PM,71.6,44.6,38,30.00,10.0,Calm,Calm,-,N/A,,Clear,0,2014-06-06 16:15:00
12:34 PM,73.4,44.6,36,30.00,10.0,Calm,Calm,-,N/A,,Clear,0,2014-06-06 16:34:00
12:55 PM,73.4,44.6,36,30.00,10.0,Calm,Calm,-,N/A,,Clear,0,2014-06-06 16:55:00
1:15 PM,73.4,41.0,31,29.99,10.0,Calm,Calm,-,N/A,,Clear,0,2014-06-06 17:15:00
1:34 PM,77.0,42.8,29,29.99,10.0,NNW,4.6,-,N/A,,Clear,340,2014-06-06 17:34:00
1:55 PM,77.0,39.2,26,29.99,10.0,NW,5.8,-,N/A,,Clear,310,2014-06-06 17:55:00
2:15 PM,77.0,41.0,28,29.99,10.0,Calm,Calm,-,N/A,,Clear,0,2014-06-06 18:15:00
2:34 PM,78.8,41.0,26,29.99,10.0,WSW,6.9,-,N/A,,Clear,240,2014-06-06 18:34:00
2:55 PM,78.8,37.4,23,29.99,10.0,Calm,Calm,-,N/A,,Clear,0,2014-06-06 18:55:00
3:15 PM,78.8,33.8,20,29.99,10.0,West,3.5,-,N/A,,Clear,280,2014-06-06 19:15:00
3:34 PM,78.8,32.0,18,29.98,10.0,West,5.8,-,N/A,,Clear,270,2014-06-06 19:34:00
3:55 PM,80.6,32.0,17,29.98,10.0,West,5.8,-,N/A,,Clear,260,2014-06-06 19:55:00
4:15 PM,78.8,32.0,18,29.98,10.0,West,6.9,-,N/A,,Clear,260,2014-06-06 20:15:00
4:34 PM,80.6,32.0,17,29.98,10.0,NNW,6.9,-,N/A,,Clear,340,2014-06-06 20:34:00
5:15 PM,78.8,32.0,18,29.97,10.0,NE,5.8,16.1,N/A,,Clear,40,2014-06-06 21:15:00
5:34 PM,78.8,35.6,21,29.97,10.0,North,8.1,-,N/A,,Clear,360,2014-06-06 21:34:00
5:55 PM,78.8,35.6,21,29.96,10.0,ENE,10.4,-,N/A,,Clear,70,2014-06-06 21:55:00
6:15 PM,78.8,33.8,20,29.97,10.0,NE,10.4,-,N/A,,Clear,40,2014-06-06 22:15:00
6:34 PM,78.8,32.0,18,29.97,10.0,ENE,9.2,-,N/A,,Clear,60,2014-06-06 22:34:00
6:55 PM,78.8,30.2,17,29.98,10.0,ENE,6.9,-,N/A,,Clear,70,2014-06-06 22:55:00
7:14 PM,78.8,32.0,18,29.98,10.0,Calm,Calm,-,N/A,,Clear,0,2014-06-06 23:14:00
7:34 PM,77.0,32.0,19,29.98,10.0,Calm,Calm,-,N/A,,Clear,0,2014-06-06 23:34:00
7:55 PM,77.0,32.0,19,29.98,10.0,Calm,Calm,-,N/A,,Clear,0,2014-06-06 23:55:00
8:15 PM,77.0,33.8,21,29.99,10.0,Calm,Calm,-,N/A,,Clear,0,2014-06-07 00:15:00
8:34 PM,75.2,35.6,24,29.99,10.0,SSE,3.5,-,N/A,,Clear,160,2014-06-07 00:34:00
8:55 PM,75.2,35.6,24,29.99,10.0,Calm,Calm,-,N/A,,Clear,0,2014-06-07 00:55:00
9:14 PM,71.6,37.4,29,29.99,10.0,Calm,Calm,-,N/A,,Clear,0,2014-06-07 01:14:00
9:34 PM,69.8,39.2,33,30.00,10.0,Calm,Calm,-,N/A,,Clear,0,2014-06-07 01:34:00
9:55 PM,68.0,42.8,40,30.00,10.0,SSE,3.5,-,N/A,,Clear,160,2014-06-07 01:55:00
10:14 PM,68.0,42.8,40,30.00,10.0,Calm,Calm,-,N/A,,Clear,0,2014-06-07 02:14:00
10:35 PM,64.4,42.8,45,30.01,10.0,Calm,Calm,-,N/A,,Clear,0,2014-06-07 02:35:00
10:55 PM,64.4,42.8,45,30.00,10.0,Calm,Calm,-,N/A,,Clear,0,2014-06-07 02:55:00
11:14 PM,64.4,42.8,45,30.01,10.0,SE,3.5,-,N/A,,Clear,140,2014-06-07 03:14:00
11:35 PM,62.6,42.8,48,30.00,10.0,Calm,Calm,-,N/A,,Clear,0,2014-06-07 03:35:00
11:55 PM,60.8,42.8,52,30.01,10.0,Calm,Calm,-,N/A,,Clear,0,2014-06-07 03:55:00